AirNav   ATP
 
 701 users online  

4KY8 Shady Acres Airport
Shepherdsville, Kentucky, USA

GOING TO SHEPHERDSVILLE?


FAA INFORMATION EFFECTIVE 06 DECEMBER 2018

Location

FAA Identifier: 4KY8
Lat/Long: 37-56-45.0000N / 085-41-49.0000W
37-56.750000N / 085-41.816667W
37.9458333 / -85.6969444
(estimated)
Elevation: 450 ft. / 137 m (estimated)
Variation: 03W (2000)
From city: 2 miles S of SHEPHERDSVILLE, KY
Time zone: UTC -5 (UTC -4 during Daylight Saving Time)
Zip code: 40165

Airport Operations

Airport use: Private use. Permission required prior to landing
Activation date: 01/2001
Control tower: no
ARTCC: INDIANAPOLIS CENTER
FSS: LOUISVILLE FLIGHT SERVICE STATION
Attendance: UNATNDD
Wind indicator: yes
Segmented circle: no

Airport Communications

WX AWOS-3 at BRY (12 nm SE): 119.925 (502-348-1867)
WX ASOS at SDF (14 nm N): PHONE 502-367-1492
WX ASOS at LOU (17 nm N): 118.275 (502-473-0693)
WX AWOS-3 at EKX (19 nm SW): 121.025 (270-763-6433)

Nearby radio navigation aids

VOR radial/distance  VOR name  Freq  Var
IIUr210/11.0LOUISVILLE VORTAC114.8001E
FTKr081/13.2FORT KNOX VOR/DME109.6001W
BQMr189/17.1BOWMAN VOR/DME112.2004W
EWOr356/18.9NEW HOPE VOR/DME110.8001E
MYSr084/(26.1)MYSTIC VOR108.2001W
FFTr252/(39.9)FRANKFORT VOR109.4003W

 
NDB name  Hdg/Dist  Freq  Var  ID
LAANG198/12.341404WLK .-.. -.-
GODMAN096/13.339603WGOI --. --- ..

Airport Services

Runway Information

Runway 15/33

Dimensions: 2100 x 85 ft. / 640 x 26 m
Surface: turf, in good condition
RUNWAY 15  RUNWAY 33
Traffic pattern: leftleft

Airport Ownership and Management from official FAA records

Ownership: Privately-owned
Owner: RONALD A. PATRICK
3524 SOUTH PRESTON HWY
SHEPHERDSVILLE, KY 40165
Phone 502-921-2957
Manager: RONALD A. PATRICK
3524 SOUTH PRESTON HWY
SHEPHERDSVILLE, KY 40165
Phone 502-921-2957

Airport Operational Statistics

Aircraft based on the field: 3
Single engine airplanes: 2
Multi engine airplanes: 1
    

Additional Remarks

500 FT TOWER 1 NM NORTH & 510 FT TOWER 1.5 NM NORTHEAST OF ARPT.

Instrument Procedures

There are no published instrument procedures at 4KY8.

Some nearby airports with instrument procedures:

KBRY - Samuels Field Airport (12 nm SE)
KFTK - Godman Army Airfield (13 nm W)
KSDF - Louisville International Airport-Standiford Field (14 nm N)
KLOU - Bowman Field Airport (17 nm N)
KEKX - Addington Field Airport (19 nm SW)
 
Loc | Ops | Rwys | IFR | FBO | Links
Com | Nav | Svcs | Stats | Notes


 
Area around 4KY8 (Shady Acres Airport)
 
Road maps at: MapQuest Bing Google
 
Aerial photo
No photo
 
Sectional chart

 
Airport distance calculator
Flying to Shady Acres Airport? Find the distance to fly.

From to 4KY8

Sunrise and sunset
Times for 12-Dec-2018
 Local
(UTC-5)
 Zulu
(UTC)
Morning civil twilight07:2112:21
Sunrise07:5012:50
Sunset17:2322:23
Evening civil twilight17:5222:52

Current date and time
Zulu (UTC)  13-Dec-2018 04:31:28
Local (UTC-5)  12-Dec-2018 23:31:28
 
METAR
KBRY 
12nm SE 
130415Z AUTO 23010G14KT 10SM OVC034 09/02 A3004 RMK AO1
KFTK 
13nm W 
130356Z 21010KT 10SM OVC033 10/02 A3004 RMK AO2A SLP178 T00980024 $
KSDF 
14nm N 
130356Z 21014G19KT 10SM BKN037 11/03 A3002 RMK AO2 SLP166 T01060028
KEKX 
16nm SW 
130415Z AUTO 23007G14KT 10SM OVC027 09/03 A3005 RMK AO2 T00900031
KLOU 
16nm N 
130353Z AUTO 21011KT 10SM CLR 11/02 A3001 RMK AO2 SLP164 T01060022
TAF
KFTK 
13nm W 
130100Z 1301/1407 22009KT 9999 BKN030 510202 QNH2999INS BECMG 1304/1305 21009KT 9999 BKN010 OVC020 QNH3004INS BECMG 1307/1308 19009KT 9000 -RA OVC005 QNH3006INS BECMG 1315/1316 15009KT 9999 NSW BKN010 OVC050 QNH3010INS BECMG 1317/1318 13009KT 9999 FEW020 OVC080 QNH3008INS TX11/1321Z TN03/1311Z
KSDF 
14nm N 
121720Z 1218/1324 21011G20KT P6SM FEW050 SCT200 FM122100 22012KT P6SM BKN090 FM130000 21009KT P6SM BKN040 FM131200 20008KT P6SM OVC025
NOTAMs
Click for the latest NOTAMs
NOTAMs are issued by the DoD/FAA and will open in a separate window not controlled by AirNav.

 

 
 

Would you like to see your business listed on this page?

 If your business provides an interesting product or service to pilots, flight crews, aircraft, or users of the Shady Acres Airport, you should consider listing it here.  To start the listing process, click on the button below
 
Add a business
 

Other Pages about Shady Acres Airport

Update a link
 
Copyright © AirNav, LLC. All rights reserved. Privacy Policy  Contact